This is the latest recevied weather packets stored in our database for station/object SA6BET-2. If no packets are shown the sender has not sent any weather packets the latest 10 day(s).
| Time | Temp. | Humidity | Pressure | Rain* | Wind** | Luminosity | Snow |
|---|---|---|---|---|---|---|---|
| 1777714462 | 21.67° C | 100% | 1023.7 hPa | - | - | - | - |
| 1777713562 | 22.22° C | 100% | 1023.7 hPa | - | - | - | - |
| 1777712662 | 21.67° C | 100% | 1023.7 hPa | - | - | - | - |
| 1777711762 | 21.11° C | 100% | 1023.6 hPa | - | - | - | - |
| 1777710861 | 20.56° C | 100% | 1023.6 hPa | - | - | - | - |
| 1777709961 | 20.56° C | 100% | 1023.5 hPa | - | - | - | - |
| 1777709061 | 20.56° C | 100% | 1023.5 hPa | - | - | - | - |
| 1777708161 | 21.11° C | 100% | 1023.7 hPa | - | - | - | - |
| 1777707261 | 20° C | 100% | 1023.6 hPa | - | - | - | - |
| 1777706361 | 20° C | 100% | 1023.5 hPa | - | - | - | - |
| 1777705461 | 20.56° C | 100% | 1023.6 hPa | - | - | - | - |
| 1777704560 | 20° C | 100% | 1023.5 hPa | - | - | - | - |
| 1777703660 | 19.44° C | 100% | 1023.4 hPa | - | - | - | - |
| 1777702760 | 19.44° C | 100% | 1023.4 hPa | - | - | - | - |
| 1777701860 | 18.89° C | 100% | 1023.4 hPa | - | - | - | - |
| 1777700960 | 18.89° C | 100% | 1023.4 hPa | - | - | - | - |
| 1777700060 | 18.89° C | 100% | 1023.3 hPa | - | - | - | - |
| 1777699159 | 18.33° C | 100% | 1023.3 hPa | - | - | - | - |
| 1777698259 | 18.33° C | 100% | 1023.2 hPa | - | - | - | - |
| 1777697359 | 18.33° C | 100% | 1023.1 hPa | - | - | - | - |
| 1777696459 | 18.33° C | 100% | 1023.3 hPa | - | - | - | - |
| 1777695559 | 18.89° C | 100% | 1023.3 hPa | - | - | - | - |
| 1777694659 | 18.33° C | 100% | 1023.3 hPa | - | - | - | - |
| 1777693758 | 18.33° C | 100% | 1023.2 hPa | - | - | - | - |
| 1777692858 | 18.33° C | 100% | 1023.2 hPa | - | - | - | - |
* Rain since midnight (hover to see other rain measurements)
** Current wind speed in m/s (hover to see current wind gust speed)